Regional Weather Roundup
Issued by NWS

Home | Current Version | Previous Version | Text Only | Print | Product List | Glossary Off
Versions: 1 2 3 4 5 6 7 8 9 10 11 12 13 14 15 16 17 18 19 20 21 22 23 24 25 26 27 28 29 30 31 32 33 34 35 36 37 38 39 40 41 42 43 44 45 46 47 48 49 50

989
ASUS43 KLOT 081108
RWRIL

ILLINOIS REGIONAL WEATHER ROUNDUP
NATIONAL WEATHER SERVICE CHICAGO/ROMEOVILLE IL
500 AM CST MON FEB 08 2016

NOTE: "FAIR" INDICATES FEW OR NO CLOUDS BELOW 12,000 FEET WITH NO
SIGNIFICANT WEATHER AND/OR OBSTRUCTIONS TO VISIBILITY.

* THESE STATIONS ARE NOT UNDER NWS QUALITY CONTROL. THEY ALSO MAY NOT
  REPORT WEATHER SUCH AS PRECIPITATION OR FOG.

ILZ001-002-007-009-015-016-024-081200-
NORTHWEST ILLINOIS

CITY           SKY/WX    TMP DP  RH WIND       PRES   REMARKS
MOLINE         LGT SNOW  23  18  81 W17G29    29.73R WCI   9
STERLING*      CLOUDY    28  19  69 W15       29.66R WCI  17
SAVANNA*       CLOUDY    24  19  79 W12G20    29.69S WCI  13
$$

ILZ003-004-008-010-011-017-018-081200-
NORTH CENTRAL ILLINOIS

CITY           SKY/WX    TMP DP  RH WIND       PRES   REMARKS
ROCKFORD       FLURRIES  30  21  69 W13       29.65R WCI  20
FREEPORT*      CLOUDY    27  20  76 W14G23    29.66R WCI  15
ROCHELLE*      CLOUDY    30  24  77 W20       29.65R WCI  18
DE KALB*       FLURRIES  31  28  90 W18       29.63R WCI  19
$$

ILZ005-006-012>014-019>023-081200-
NORTHEAST ILLINOIS

CITY           SKY/WX    TMP DP  RH WIND       PRES   REMARKS
CHICAGO-OHARE  CLOUDY    31  28  89 SW3       29.61S
CHICAGO-MIDWAY MOCLDY    30  25  81 SW6       29.62F WCI  24
AURORA         FLURRIES  33  31  92 W15       29.62S WCI  23
LANSING*       PTCLDY    26  24  91 S3        29.64S
WAUKEGAN       CLOUDY    32  30  92 SW3       29.59S
DUPAGE AIRPORT LGT SNOW  31  28  89 SW8       29.61S FOG     WCI  23
KANKAKEE*      MOCLDY    31  28  88 SW7       29.66S WCI  25
WHEELING       CLOUDY    30  28  92 S3        29.62S
MORRIS*        CLOUDY    33  31  92 W12       29.60F WCI  24
ROMEOVILLE*    CLOUDY    31  28  90 W9        29.63S WCI  23
NORTHERLY ISL    N/A     32  27  82 SW2         N/A
$$

LMZ740>746-081200-
SOUTHERN LAKE MICHIGAN

STATION/POSITION SKY/WX   TEMP    WIND        PRES    VSBY  WAVE
                          AIR SEA DIR/SP/G                  HT/PER
                          (F)     (DEG/KT/KT) (MB)    (MI)  (FT/S)
HARRISON CRIB              34     260/ 12/ 13   N/A
BURNHAM HARBOR             32     240/  4/ 10   N/A
CALUMET HARBOR             31     210/  3/  5 1003.0F
BURNS HARBOR               33     220/  7/ 10 1004.4F
MICHIGAN CITY              32     200/ 10/ 11   N/A
$$

ILZ025>027-034>036-040-047-049-050-058-095>099-081200-
WEST-CENTRAL ILLINOIS

CITY           SKY/WX    TMP DP  RH WIND       PRES   REMARKS
QUINCY         LGT SNOW  29  27  92 NW24G31   29.77S FOG     WCI  15
GALESBURG*     CLOUDY    25  20  79 W22G29    29.74R WCI  11
MACOMB*        CLOUDY    27  22  80 NW24G33   29.77R WCI  12
JACKSONVILLE*  MIX PCPN  34  32  92 W21G26    29.74S WCI  23
PITTSFIELD*    CLOUDY    31  29  90 W13G20    29.78R FOG     WCI  21
$$

ILZ028>032-037-038-041>044-048-051>054-059>061-081200-
CENTRAL ILLINOIS

CITY           SKY/WX    TMP DP  RH WIND       PRES   REMARKS
PONTIAC        MIX PCPN  33  33  99 W9        29.67S WCI  26
BLOOMINGTON    FRZ RAIN  32  32 100 W10       29.68S FOG     WCI  24
DECATUR        CLOUDY    35  30  82 W9        29.70F WCI  28
PEORIA         CLOUDY    32  23  69 NW13      29.70S WCI  22
LACON*         CLOUDY    31  24  76 NW13G18   29.68S WCI  21
LINCOLN*       FLURRIES  33  32  97 W7        29.70S WCI  27
SPRINGFIELD    LGT SNOW  34  32  92 W17G23    29.72S FOG     WCI  23
TAYLORVILLE    CLOUDY    32  32 100 W10G16    29.72F WCI  24
$$

ILZ033-039-045-046-055>057-062-063-081200-
EAST-CENTRAL ILLINOIS

CITY           SKY/WX    TMP DP  RH WIND       PRES   REMARKS
CHAMPAIGN      CLOUDY    31  29  92 W7        29.69S WCI  24
RANTOUL*       MOCLDY    34  31  88 W10       29.68S WCI  26
MATTOON        LGT SNOW  32  31  96 W9        29.70F FOG     WCI  24
PARIS*         CLOUDY    33  32  96 W6        29.71S WCI  27
$$

ILZ079-100>102-081200-
SOUTHWEST ILLINOIS

CITY           SKY/WX    TMP DP  RH WIND       PRES   REMARKS
ALTON          CLOUDY    35  26  71 W18G26    29.77S WCI  24
BELLEVILLE     MOCLDY    37  28  68 W18       29.77S WCI  27
CAHOKIA*       CLOUDY    38  21  50 W14G25    29.79S WCI  30
SPARTA*        CLOUDY    36  30  78 W10       29.80S WCI  28
$$

ILZ064>066-069>071-074>076-080>082-084>086-088>090-092>094-081200-
SOUTH-CENTRAL ILLINOIS

CITY           SKY/WX    TMP DP  RH WIND       PRES   REMARKS
CARBONDALE     CLOUDY    36  27  69 W7        29.80F WCI  30
CAIRO*         PTCLDY    37  30  75 W10       29.82S WCI  30
EFFINGHAM*     LGT SNOW  33  33  99 W7        29.75S WCI  27
MARION         MOCLDY    39  28  65 W5        29.79F
MT. VERNON     MOCLDY    36  27  69 W6        29.77F WCI  31
CENTRALIA*     DRIZZLE   37  32  84 W12G18    29.76S WCI  29
SALEM*         CLOUDY    36  32  85 W7        29.76S WCI  30
METROPOLIS*    PTCLDY    39  29  68 W10G16    29.81R WCI  32
$$

ILZ067-068-072-073-078-083-087-091-081200-
SOUTHEAST ILLINOIS

CITY           SKY/WX    TMP DP  RH WIND       PRES   REMARKS
LAWRENCEVILLE  CLOUDY    37  32  82 W7        29.74F WCI  32
FLORA*         CLOUDY    37  31  78 W14G21    29.75S WCI  28
FAIRFIELD*     MOCLDY    37  31  79 W7        29.76S WCI  31
HARRISBURG*    CLOUDY    37  32  81 NW10      29.79F WCI  30
ROBINSON*      DRIZZLE   34  32  92 W9        29.74F WCI  27
CARMI*         LGT RAIN  35  33  94 W9        29.77S WCI  28
$$

ABBREVIATIONS USED IN REMARKS
   TC - TEMPERATURE IN CELSIUS
  WCI - WIND CHILL INDEX
   HX - HEAT INDEX
  VSB - VISIBILITY
$$





USA.gov is the U.S. government's official web portal to all federal, state and local government web resources and services.